Weather in Mormugao

India     15°22′22″N   73°53′25″E
temp.,
°C
wind,
m/s
gust,
m/s
humid.,
%
clouds,
%
prec.,
mm/h
press.,
hPa
HPBL,
m
19 september, sun
sun1923:30+24nw119270 0.3 101031
02:30+24s1193100 0.4 100947
05:30+23ese119495 0.6 101033
08:30+27se118460 0.1 1012275
11:30+29wsw336795 0.2 10121168
14:30+29w4466100 0.1 10091019
17:30+27wnw2479100 0.1 1010409
20:30+25nw1186100 0.1 101115
20 september, mon
mon2023:30+25ne1190100 0.1 101121
02:30+24ene1192100 0.1 100931
05:30+23e1193100 0.1 101025
08:30+26e1185100 0.0 1012185
11:30+29w2271100 0.1 1011967
14:30+29w4470100 0.2 1008958
17:30+27wnw358191 0.4 1008605
20:30+25wnw129172 0.3 101059
21 september, tue
tue2123:30+25nw119262 0.7 101156
02:30+24nnw019345 0.3 100958
05:30+24nne119483 0.8 100946
08:30+26n1185100 0.2 1011327
11:30+29w337283 0.4 1010961
14:30+28w4574100 1.0 1007950
17:30+26wnw358611 3.4 1008456
20:30+24nw239287 3.4 1009113
22 september, wed
wed2223:30+24nw239290 4.8 1009102
02:30+24nw1391100 0.8 1007115
05:30+24nw139499 1.9 1008105
08:30+25nw369190 3.7 1010462
11:30+25nw2692100 7.7 1010452
14:30+24ne1194100 2.8 100788
17:30+23ese1195100 3.6 100774
20:30+23ese119585 0.3 100961
23 september, thu
thu2323:30+23se119454 0.5 100964
02:30+23nw129495 1.1 1007100
05:30+23wnw129495 4.0 1007104
08:30+25wnw2586100 2.5 1009562
11:30+26wnw3584100 5.4 1009706
14:30+27wnw4684100 3.9 1007764
17:30+25wnw3590100 7.4 1007478
20:30+23wnw1295100 4.8 100988